Weather History for VTSP - November, 2012

Change the Weather History Date:

Wednesday, November 21, 2012

  Actual Average Record
Temperature  
Mean Temperature 82 °F -  
Max Temperature 88 °F 88 °F 95 °F (1996)
Min Temperature 75 °F 74 °F 71 °F (1997)
Cooling Degree Days 16    
Growing Degree Days 32 (Base 50)    
Moisture  
Dew Point 75 °F    
Average Humidity 85    
Maximum Humidity 95    
Minimum Humidity 66    
Precipitation  
Precipitation 0.39 in 0.14 in - ()
Sea Level Pressure  
Sea Level Pressure 29.85 in    
Wind  
Wind Speed 2 mph ()    
Max Wind Speed 10 mph    
Max Gust Speed -    
Visibility 5.0 miles    
Events Rain    
Averages and records for this station are not official NWS values.
T = Trace of Precipitation, MM = Missing Value Source: Averaged Metar Reports

Daily Weather History Graph

Daily Weather History Graph

Search for Another Location

Airport or City:

Trip Planner

Search our weather history database for the weather conditions in past years. The results will help you decide how hot, cold, wet, or windy it might be!

Date:

Astronomy

Nov. 21, 2012 Rise Set
Actual Time 6:20 AM ICT 6:04 PM ICT
Civil Twilight 5:58 AM ICT 6:26 PM ICT
Nautical Twilight 5:33 AM ICT 6:52 PM ICT
Astronomical Twilight 5:07 AM ICT 7:17 PM ICT
Moon 12:55 PM ICT (11/21) 12:24 AM ICT (11/21)
Length of Visible Light 12h 27m
Length of Day
11h 43m
First Quarter, 56% of the Moon is Illuminated
Nov 21
First Quarter
Nov 28
Full
Dec 6
Last Quarter
Dec 13
New
Dec 20
First Quarter

Hourly Weather History & Observations

Time (ICT) Temp. Heat Index Dew Point Humidity Pressure Visibility Wind Dir Wind Speed Gust Speed Precip Events Conditions
12:00 AM 77.0 °F - 73.4 °F 89% 29.89 in 5.0 mi NW 2.3 mph - N/A   Mostly Cloudy
12:30 AM 77.0 °F - 73.4 °F 89% 29.86 in 5.0 mi Calm Calm - N/A   Mostly Cloudy
1:00 AM 77 °F - 76 °F 94% 29.84 in 6 mi Calm Calm - -   Scattered Clouds
1:00 AM 75.2 °F - 73.4 °F 94% 29.86 in 5.0 mi Calm Calm - N/A   Mostly Cloudy
2:00 AM 75.2 °F - 73.4 °F 94% 29.86 in 5.0 mi Calm Calm - N/A   Mostly Cloudy
2:30 AM 75.2 °F - 73.4 °F 94% 29.83 in 5.0 mi Calm Calm - N/A   Mostly Cloudy
3:00 AM 75.2 °F - 73.4 °F 94% 29.83 in 5.0 mi Calm Calm - N/A   Mostly Cloudy
4:00 AM 75.2 °F - 73.4 °F 94% 29.83 in 5.0 mi Calm Calm - N/A   Mostly Cloudy
4:30 AM 75.2 °F - 73.4 °F 94% 29.83 in 5.0 mi Calm Calm - N/A   Mostly Cloudy
5:00 AM 75.2 °F - 73.4 °F 94% 29.83 in 5.0 mi Calm Calm - N/A   Mostly Cloudy
5:30 AM 75.2 °F - 73.4 °F 94% 29.86 in 5.0 mi Calm Calm - N/A   Mostly Cloudy
6:00 AM 75.2 °F - 73.4 °F 94% 29.86 in 5.0 mi Calm Calm - N/A   Mostly Cloudy
7:00 AM 77 °F - 76 °F 95% 29.85 in 6 mi Calm Calm - -   Scattered Clouds
7:00 AM 77.0 °F - 75.2 °F 94% 29.89 in 4.3 mi NNW 2.3 mph - N/A   Mostly Cloudy
7:30 AM 77.0 °F - 75.2 °F 94% 29.89 in 3.1 mi Calm Calm - N/A Rain Rain
8:00 AM 77.0 °F - 75.2 °F 94% 29.92 in 3.1 mi Variable 2.3 mph - N/A Rain Rain
8:30 AM 77.0 °F - 73.4 °F 89% 29.95 in 4.3 mi Variable 2.3 mph - N/A Rain Light Rain
9:00 AM 77.0 °F - 75.2 °F 94% 29.92 in 4.3 mi Variable 1.2 mph - N/A Rain Light Rain
9:30 AM 78.8 °F - 75.2 °F 89% 29.95 in 4.3 mi ENE 4.6 mph - N/A Rain Light Rain
10:00 AM 78.8 °F - 75.2 °F 89% 29.92 in 4.3 mi East 8.1 mph - N/A Rain Light Rain
10:30 AM 78.8 °F - 75.2 °F 89% 29.92 in 5.0 mi NE 5.8 mph - N/A   Mostly Cloudy
11:00 AM 78.8 °F - 75.2 °F 89% 29.89 in 5.0 mi NE 5.8 mph - N/A   Mostly Cloudy
11:30 AM 78.8 °F - 73.4 °F 83% 29.89 in 5.0 mi East 9.2 mph - N/A   Mostly Cloudy
12:00 PM 80.6 °F 85.4 °F 73.4 °F 79% 29.86 in 5.0 mi NE 8.1 mph - N/A   Mostly Cloudy
12:30 PM 82.4 °F 89.5 °F 75.2 °F 79% 29.86 in 5.0 mi ENE 5.8 mph - N/A   Mostly Cloudy
1:00 PM 85 °F - 77 °F 71% 29.80 in 6 mi East 5.8 mph - -   Partly Cloudy
1:00 PM 82.4 °F 89.5 °F 75.2 °F 79% 29.83 in 5.0 mi ENE 6.9 mph - N/A   Mostly Cloudy
1:30 PM 84.2 °F 92.3 °F 75.2 °F 74% 29.83 in 5.0 mi East 8.1 mph - N/A   Mostly Cloudy
2:00 PM 84.2 °F 90.9 °F 73.4 °F 70% 29.80 in 5.0 mi East 10.4 mph - N/A   Mostly Cloudy
2:30 PM 84.2 °F 90.9 °F 73.4 °F 70% 29.80 in 5.6 mi East 6.9 mph - N/A   Mostly Cloudy
3:00 PM 86.0 °F 95.1 °F 75.2 °F 70% 29.80 in 5.6 mi East 8.1 mph - N/A   Mostly Cloudy
3:30 PM 86.0 °F 93.4 °F 73.4 °F 66% 29.77 in 5.6 mi East 8.1 mph - N/A   Mostly Cloudy
4:00 PM 86.0 °F 95.1 °F 75.2 °F 70% 29.77 in 5.6 mi East 8.1 mph - N/A   Mostly Cloudy
4:30 PM 86.0 °F 93.4 °F 73.4 °F 66% 29.80 in 5.6 mi ENE 8.1 mph - N/A   Mostly Cloudy
5:00 PM 84.2 °F 92.3 °F 75.2 °F 74% 29.80 in 5.6 mi East 8.1 mph - N/A   Mostly Cloudy
5:30 PM 84.2 °F 90.9 °F 73.4 °F 70% 29.80 in 5.0 mi ESE 3.5 mph - N/A   Mostly Cloudy
6:00 PM 82.4 °F 89.5 °F 75.2 °F 79% 29.80 in 5.0 mi East 3.5 mph - N/A   Mostly Cloudy
6:30 PM 82.4 °F 89.5 °F 75.2 °F 79% 29.80 in 5.0 mi NE 3.5 mph - N/A   Mostly Cloudy
7:00 PM 81 °F - 77 °F 85% 29.77 in 6 mi Calm Calm - -   Scattered Clouds
7:00 PM 80.6 °F 86.2 °F 75.2 °F 84% 29.80 in 5.0 mi ENE 3.5 mph - N/A   Mostly Cloudy
7:30 PM 80.6 °F 86.2 °F 75.2 °F 84% 29.80 in 5.0 mi Variable 1.2 mph - N/A   Mostly Cloudy
8:00 PM 78.8 °F - 75.2 °F 89% 29.83 in 5.0 mi Calm Calm - N/A   Mostly Cloudy
8:30 PM 78.8 °F - 75.2 °F 89% 29.83 in 5.0 mi Calm Calm - N/A   Mostly Cloudy
9:00 PM 77.0 °F - 75.2 °F 94% 29.86 in 5.0 mi Calm Calm - N/A   Mostly Cloudy
9:30 PM 78.8 °F - 75.2 °F 89% 29.86 in 5.0 mi Calm Calm - N/A   Mostly Cloudy
10:00 PM 78.8 °F - 75.2 °F 89% 29.86 in 5.0 mi Calm Calm - N/A   Mostly Cloudy
10:30 PM 78.8 °F - 75.2 °F 89% 29.86 in 5.0 mi Calm Calm - N/A   Mostly Cloudy
11:00 PM 78.8 °F - 75.2 °F 89% 29.86 in 5.0 mi Calm Calm - N/A   Mostly Cloudy
11:30 PM 78.8 °F - 75.2 °F 89% 29.86 in 5.0 mi Calm Calm - N/A   Mostly Cloudy